SCP
1 1 1 1 1 1 1 0 0 0 0 0 0 0 1 1 0 0 0 0 0 0 0 0 0 0 0 0 0 0 0 0 0 0 0 0 0 0
1 1 0 0 0 1 1 1 0 0 0 0 0 0 0 1 0 0 0 0 0 0 0 0 0 0 0 0 0 0 0 0 0 0 0 0 0 0
1 1 0 0 0 1 1 1 1 0 0 0 0 0 0 0 0 0 0 0 0 0 0 0 0 0 0 0 0 0 0 0 0 0 0 0 0 0
0 0 0 0 0 1 1 1 0 0 0 0 0 0 0 0 0 0 0 0 0 0 0 0 0 0 0 0 0 0 0 0 0 0 0 0 0 0
0 0 0 1 0 0 0 0 0 0 0 0 0 0 0 0 0 0 0 0 0 0 0 0 0 0 0 0 0 0 0 0 0 0 0 0 0 0
0 0 0 1 1 0 0 0 0 0 0 0 0 0 0 0 0 0 0 0 0 0 0 0 0 0 0 0 0 0 0 0 0 0 0 0 0 0
0 0 0 1 1 1 0 0 0 0 0 0 0 0 0 0 0 0 0 0 0 0 0 0 0 0 0 0 0 0 0 0 0 0 0 0 0 0
1 0 1 1 1 0 0 0 0 0 0 0 0 0 0 0 0 0 0 0 0 0 0 0 0 0 0 0 0 0 0 0 0 0 0 0 0 0
1 1 0 0 0 0 0 0 0 0 0 0 0 0 0 0 0 0 0 0 0 0 0 0 0 0 0 0 0 0 0 0 0 0 0 0 0 0
0 0 0 0 0 0 0 0 0 0 0 0 0 0 0 0 0 0 0 0 0 0 0 0 0 0 0 0 0 0 0 0 0 0 0 0 0 0
0 0 0 0 0 0 0 0 0 0 0 0 0 0 0 0 0 0 0 0 0 0 0 0 0 0 0 0 0 0 0 0 0 0 0 0 0 0
0 0 0 0 0 0 0 0 0 0 0 0 0 0 0 0 0 0 0 0 0 0 0 0 0 0 0 0 0 0 0 0 0 0 0 0 0 0
0 0 0 0 0 0 0 0 0 0 0 0 0 0 0 0 0 0 0 0 0 0 0 0 0 0 0 0 0 0 0 0 0 0 0 0 0 0
0 0 0 0 0 0 0 0 0 0 0 0 0 0 0 0 0 0 0 0 0 0 0 0 0 0 0 0 0 0 0 0 0 0 0 0 0 0
0 0 0 0 0 0 0 0 0 0 0 0 0 0 0 0 0 0 0 0 0 0 0 0 0 0 0 0 0 0 0 0 0 0 0 0 0 0
0 0 0 0 0 0 0 0 0 0 0 0 0 0 0 0 0 0 0 0 0 0 0 0 0 0 0 0 0 0 0 0 0 0 0 0 0 0
0 0 0 0 0 0 0 0 0 0 0 0 0 0 0 0 0 0 0 0 0 0 0 0 0 0 0 0 0 0 0 0 0 0 0 0 0 0
0 0 0 0 0 0 0 0 0 0 0 0 0 0 0 0 0 0 0 0 0 0 0 0 0 0 0 0 0 0 0 0 0 0 0 0 0 0
0 0 0 0 0 0 0 0 0 0 0 0 0 0 0 0 0 0 0 0 0 0 0 0 0 0 0 0 0 0 0 0 0 0 0 0 0 0
0 0 0 0 0 0 0 0 0 0 0 0 0 0 0 0 0 0 0 0 0 0 0 0 0 0 0 0 0 0 0 0 0 0 0 0 0 0
0 0 0 0 0 0 0 0 0 0 0 0 0 0 0 0 0 0 0 0 0 0 0 0 0 0 0 0 0 0 0 0 0 0 0 0 0 0
0 0 0 0 0 0 0 0 0 0 0 0 0 0 0 0 0 0 0 0 0 0 0 0 0 0 0 0 0 0 0 0 0 0 0 0 0 0
0 0 0 0 0 0 0 0 0 0 0 0 0 0 0 0 0 0 0 0 0 0 0 0 0 0 0 0 0 0 0 0 0 0 0 0 0 0
Wind_Speed
1 1 2 2 2 3 3 3 3 3 4 4 2 2 2 1 6 7 7 13 14 13 12 11 9 8 6 5 3 2 2 2 3 3 3 3 3 3
1 2 2 2 2 2 2 2 3 4 3 3 3 2 1 1 4 5 6 15 17 16 14 13 11 10 8 7 6 4 3 3 3 4 3 3 3 3
2 3 3 3 2 2 2 3 3 3 4 3 2 1 1 1 2 3 3 5 8 15 16 15 14 12 11 10 8 7 6 5 5 5 5 4 3 3
2 2 3 2 3 3 2 3 3 4 4 4 3 2 3 3 3 3 3 4 5 13 17 16 15 14 13 11 10 9 9 8 7 7 7 6 6 5
3 3 2 1 1 2 3 3 3 3 3 3 3 2 1 1 1 2 2 2 3 7 14 14 14 14 13 13 12 12 11 10 9 8 8 8 7 7
1 1 1 2 2 1 0 1 1 1 2 2 2 1 1 1 1 2 2 2 2 2 5 8 11 14 14 14 14 13 13 12 11 11 10 9 8 8
0 3 5 5 5 3 2 2 2 1 0 1 1 1 1 1 2 2 2 2 2 2 2 3 4 5 8 12 15 16 15 14 13 13 12 11 10 9
1 2 4 5 5 4 3 2 1 1 1 1 0 0 1 2 1 1 2 1 2 1 1 2 2 4 4 5 9 14 16 15 14 13 13 12 11 11
2 0 1 4 2 2 3 4 3 3 2 0 1 0 0 1 1 1 1 2 2 1 0 2 1 3 3 3 5 9 11 12 13 13 13 13 12 11
3 2 2 3 4 4 1 1 1 4 4 2 1 2 2 1 1 1 1 1 1 1 1 1 1 2 2 2 3 4 6 7 9 11 12 12 12 11
3 4 5 4 5 6 4 3 3 1 2 1 1 2 2 1 1 1 0 0 1 1 2 1 2 2 2 2 2 4 5 6 8 9 9 10 10 10
3 4 8 6 6 6 4 4 4 3 2 1 0 0 1 2 2 1 0 0 1 1 1 1 1 1 2 1 0 1 2 4 6 7 8 8 8 5
3 3 4 6 7 7 5 4 3 4 3 2 2 2 2 1 0 1 0 1 0 1 0 1 1 1 1 2 2 1 1 1 1 3 5 7 7 6
4 3 3 6 6 6 5 5 6 5 3 3 3 3 3 3 3 3 3 2 1 0 0 1 1 1 1 2 2 2 1 1 1 1 1 2 4 7
4 5 5 6 5 4 6 7 6 4 4 4 4 3 3 3 3 3 4 4 3 2 1 1 1 1 1 1 2 2 3 2 1 1 1 1 1 2
3 4 6 7 6 6 5 5 4 4 4 3 3 3 3 3 3 3 3 3 3 3 3 3 2 1 1 2 2 2 2 2 2 2 2 1 1 1
4 4 5 5 6 6 5 6 5 5 5 4 3 3 3 3 3 3 3 3 3 3 3 3 3 2 2 2 1 2 2 2 2 2 2 2 2 2
7 6 6 6 6 6 6 6 6 6 5 5 4 4 4 3 3 3 3 3 3 3 3 4 4 4 4 4 5 3 3 3 3 3 2 2 3 2
7 6 6 6 6 6 5 5 5 5 5 5 5 5 4 4 4 4 4 4 3 3 3 3 4 4 4 4 4 6 4 3 4 3 3 2 3 2
6 6 6 6 5 5 5 4 4 5 5 5 5 5 5 4 4 4 4 4 3 3 3 3 3 3 2 2 2 3 4 3 3 4 4 3 2 2
5 5 5 5 4 4 4 4 4 4 5 4 4 4 4 4 4 4 3 5 4 3 4 3 3 3 2 2 2 3 3 4 4 2 3 3 4 3
4 4 4 5 4 4 4 4 4 4 4 4 4 4 4 3 4 4 4 4 4 3 3 3 4 3 3 3 2 3 4 4 4 6 6 3 2 3
4 3 3 4 4 3 4 4 4 4 4 4 4 3 3 3 3 3 4 4 4 4 4 4 4 3 3 3 3 3 5 5 4 4 3 3 2 1
Wind_Direction
267 257 222 221 211 213 211 193 189 218 238 235 231 217 190 177 172 186 179 191 193 195 197 199 201 205 210 217 226 246 281 309 317 316 317 326 330 346
199 259 257 244 233 216 218 213 197 198 231 235 220 219 188 174 171 201 203 193 197 196 198 200 202 204 208 214 219 226 240 263 282 287 288 303 320 336
240 222 229 229 223 219 217 219 216 202 225 250 233 210 186 181 198 242 226 181 195 200 201 202 203 205 209 213 219 223 229 240 256 267 270 274 280 291
238 242 244 220 214 219 218 226 223 212 210 239 245 213 208 202 202 230 239 205 199 203 204 204 205 207 210 213 218 222 226 232 240 251 258 262 265 269
210 217 226 195 210 208 218 229 231 232 213 221 247 224 203 195 211 248 260 265 250 201 201 207 210 211 213 216 219 222 225 229 234 239 247 255 262 264
201 192 92 75 60 28 284 234 236 239 228 224 240 239 200 177 178 229 258 254 264 240 205 207 214 218 221 221 222 224 226 228 230 233 237 242 248 254
348 90 93 99 90 68 56 36 27 17 287 227 242 225 208 180 211 209 235 257 264 248 231 217 207 215 220 228 231 230 227 227 228 231 232 234 239 245
7 112 145 151 139 141 145 131 91 49 34 26 316 234 246 220 217 205 213 229 265 275 228 247 214 227 228 220 226 226 227 227 228 229 231 232 234 238
327 12 90 101 133 171 196 209 209 196 199 35 12 319 192 179 169 217 220 215 235 244 192 270 251 251 252 257 250 229 227 229 231 231 232 232 233 235
329 6 61 79 47 34 16 283 196 184 201 203 87 70 69 92 133 173 198 221 258 219 145 267 284 265 270 270 268 237 233 241 243 241 237 235 234 235
18 37 50 69 45 30 9 355 13 63 147 130 103 118 124 109 98 77 76 10 299 265 171 223 278 283 282 267 250 226 239 249 254 254 251 243 238 235
53 65 61 61 46 28 13 21 32 11 23 78 94 227 210 214 214 231 233 246 300 312 172 200 290 329 324 309 248 220 250 257 259 261 260 255 241 230
49 60 54 49 47 35 34 45 28 344 353 36 56 41 37 60 111 281 298 141 136 306 247 163 322 350 334 323 316 275 237 266 257 262 256 253 242 223
50 54 61 48 44 41 43 31 15 6 21 46 51 42 29 25 21 13 17 28 67 77 51 89 35 12 355 334 318 326 312 286 286 292 279 236 243 241
60 64 58 44 37 46 46 34 25 27 42 50 48 41 29 23 21 14 14 19 18 27 50 58 65 14 6 305 309 317 324 323 339 333 315 246 229 219
52 61 53 46 46 45 40 34 42 43 47 51 45 37 32 29 24 18 12 3 13 3 12 24 15 5 319 292 294 305 320 323 337 331 319 308 294 254
38 50 45 41 41 37 36 34 34 32 35 33 41 38 35 34 21 13 12 12 25 11 358 351 343 327 283 272 320 334 347 348 340 342 345 328 313 308
52 52 48 45 43 39 37 33 31 27 25 31 36 34 29 26 20 16 20 23 21 15 7 358 357 355 357 21 33 24 13 359 347 349 355 341 331 355
51 48 45 42 39 38 36 34 30 24 23 30 31 27 22 21 24 24 20 19 16 11 7 10 18 23 19 356 354 30 17 351 351 355 355 348 328 355
45 45 42 38 35 33 29 26 27 27 26 29 29 24 20 19 21 19 18 13 3 6 11 17 22 18 2 311 314 345 17 23 10 357 344 338 345 69
45 44 38 34 30 27 22 19 29 33 28 30 28 23 17 15 13 10 10 11 13 14 15 359 333 322 307 352 12 356 358 36 55 36 353 352 349 358
46 46 40 32 27 21 16 15 26 34 30 27 21 17 10 8 8 9 12 12 9 8 4 345 342 0 21 29 16 4 2 10 49 68 62 56 19 359
40 45 52 39 25 15 12 13 27 36 31 22 11 2 358 358 5 15 13 14 12 9 4 354 352 7 18 23 35 33 20 12 10 18 19 10 12 320